Location: Saint-Denis
(20.8800°S, 55.4481°E)
Time: 10:47:37
(UTC+04:00)

FENGYUN 1C DEB - Pass Details

Date: 01 March 2024
Orbit: 798 x 864 km, 98.6° (Epoch: 24 April)

Event Time Altitude Azimuth Distance (km) Brightness Sun altitude
Rises 20:05:34 0° 179° (S) 3,421 ? -19.2°
Reaches altitude 10° 20:08:05 10° 185° (S) 2,470 ? -19.8°
Maximum altitude 20:13:10 41° 254° (WSW) 1,188 ? -20.9°
Drops below altitude 10° 20:18:09 10° 323° (NW) 2,405 ? -22.0°
Sets 20:20:34 0° 330° (NNW) 3,321 ? -22.6°
